Flag for China Weather past 2 weeks in Xiamen, Fujian, China

Now
73 °F

Fog.


Feels Like: 70 °F
Forecast: 68 / 77 °F
Wind: 8 mph from East

Location: Xiamen Airport

Current Time: May 4, 2015 at 6:57:15 AM

Latest Report: May 4, 2015 at 6:00 AM


Visibility: 3 mi

Pressure: 29.86 "Hg

Humidity: 94%

Dew point: 72 °F

Location of XiamenLocation

Historic Weather in Xiamen — Graph

°F

Xiamen temperature yesterday

Maximum temperature yesterday: 91 °F (at 2:00 PM)
Minimum temperature yesterday: 75 °F (at 4:00 AM)
Average temperature yesterday: 81 °F

Past Weeks' High & Low Weather Summary

 TemperatureHumidityPressure
High91 °F (May 3, 2:00 PM)100% (Apr 20, 5:00 AM)30.15 "Hg (Apr 20, 5:00 AM)
Low63 °F (Apr 21, 2:00 AM)18% (Apr 23, 11:00 AM)29.68 "Hg (Apr 19, 4:00 PM)
Average74 °F74%29.92 "Hg
* Reported Apr 19 5:00 AM — May 4 5:00 AM, Xiamen, Weather by CustomWeather, © 2015

Note: Actual official high and low records may vary slightly from our data, if they occured in-between our weather recording intervals... More about our weather records

Advertising

Xiamen weather history for previous 24 hours

 ConditionsComfort  
Time TempWeatherWind HumidityBarometerVisibility
5:00 AM
Mon, May 4
73 °FFog.10 mph100%29.83 "Hg3 mi
4:00 AM73 °FSprinkles. Passing clouds.10 mph100%29.83 "Hg4 mi
3:00 AM75 °FPartly cloudy.8 mph94%29.83 "Hg4 mi
2:00 AM75 °FPartly cloudy.13 mph100%29.83 "HgN/A
1:00 AM75 °FSprinkles. Passing clouds.10 mph100%29.83 "Hg5 mi
12:00 AM77 °FFog.8 mph100%29.83 "Hg3 mi
11:00 PM
Sun, May 3
77 °FPassing clouds.1 mph94%29.83 "Hg4 mi
10:00 PM77 °FPassing clouds.1 mph100%29.80 "Hg4 mi
9:00 PM77 °FPassing clouds.3 mph94%29.80 "Hg4 mi
8:00 PM79 °FPassing clouds.6 mph94%29.77 "HgN/A
7:00 PM79 °FPassing clouds.6 mph94%29.74 "HgN/A
6:00 PM88 °FPassing clouds.6 mph62%29.71 "HgN/A
5:00 PM88 °FPassing clouds.10 mph66%29.71 "HgN/A
4:00 PM90 °FPassing clouds.8 mph59%29.71 "HgN/A
3:00 PM90 °FPassing clouds.8 mph59%29.74 "HgN/A
2:00 PM91 °FPassing clouds.6 mph56%29.77 "HgN/A
1:00 PM90 °FPassing clouds.6 mph59%29.80 "HgN/A
12:00 PM88 °FPassing clouds.6 mph59%29.80 "HgN/A
11:00 AM84 °FPassing clouds.6 mph70%29.83 "HgN/A
10:00 AM81 °FPassing clouds.6 mph84%29.83 "HgN/A
9:00 AM82 °FPassing clouds.3 mph84%29.83 "HgN/A
8:00 AM79 °FScattered clouds.3 mph94%29.83 "Hg5 mi
7:00 AM75 °FFog.1 mph100%29.80 "Hg2 mi
6:00 AM75 °FSprinkles. Fog.1 mph100%29.80 "Hg2 mi
Weather by CustomWeather, © 2015

See weather overviewHow to use our weather pages